Weather History for KOVS - November, 2012

Change the Weather History Date:

Wednesday, November 7, 2012

  Actual Average (KPDC) Record (KPDC)
Temperature  
Mean Temperature 40 °F -  
Max Temperature 44 °F 50 °F 77 °F (2001)
Min Temperature 35 °F 30 °F -2 °F (1991)
Degree Days  
Heating Degree Days 26    
Moisture  
Dew Point 36 °F    
Average Humidity 86    
Maximum Humidity 100    
Minimum Humidity 71    
Precipitation  
Precipitation 0.00 in - - ()
Sea Level Pressure  
Sea Level Pressure 30.08 in    
Wind  
Wind Speed 1 mph (NE)    
Max Wind Speed 7 mph    
Max Gust Speed -    
Visibility 7 miles    
Events Fog    
Averages and records for this station are not official NWS values.
T = Trace of Precipitation, MM = Missing Value Source: NWS Daily Summary

Daily Weather History Graph

Daily Weather History Graph

Search for Another Location

Airport or City:

Trip Planner

Search our weather history database for the weather conditions in past years. The results will help you decide how hot, cold, wet, or windy it might be!

Date:

Astronomy

Nov. 07, 2012 Rise Set
Actual Time 6:45 AM CST 4:46 PM CST
Civil Twilight 6:15 AM CST 5:16 PM CST
Nautical Twilight 5:41 AM CST 5:50 PM CST
Astronomical Twilight 5:08 AM CST 6:23 PM CST
Moon No Moon Rise 1:05 PM CST (11/7)
Length of Visible Light 11h 00m
Length of Day
10h 00m
Last Quarter, 43% of the Moon is Illuminated
Nov 7
Last Quarter
Nov 13
New
Nov 20
First Quarter
Nov 28
Full
Dec 6
Last Quarter

Hourly Weather History & Observations

Time (CST) Temp. Windchill Dew Point Humidity Pressure Visibility Wind Dir Wind Speed Gust Speed Precip Events Conditions
12:46 AM 37.4 °F - 37.4 °F 100% 29.93 in 1.0 mi Calm Calm - N/A   Overcast
12:53 AM 37.0 °F - 37.0 °F 100% 29.95 in 1.0 mi Calm Calm - N/A   Overcast
1:02 AM 37.4 °F - 35.6 °F 93% 29.93 in 0.5 mi Calm Calm - N/A Fog Fog
1:48 AM 35.6 °F - 35.6 °F 100% 29.94 in 0.2 mi Calm Calm - N/A Fog Fog
1:53 AM 36.0 °F - 36.0 °F 100% 29.97 in 0.2 mi Calm Calm - N/A Fog Fog
2:45 AM 35.6 °F - 35.6 °F 100% 29.96 in 0.8 mi Calm Calm - N/A   Overcast
2:53 AM 36.0 °F - 36.0 °F 100% 29.99 in 0.8 mi Calm Calm - N/A   Overcast
3:00 AM 35.6 °F - 35.6 °F 100% 29.96 in 1.2 mi Calm Calm - N/A   Overcast
3:35 AM 37.4 °F - 35.6 °F 93% 29.98 in 2.0 mi Calm Calm - N/A   Overcast
3:53 AM 37.9 °F - 37.0 °F 97% 30.01 in 5.0 mi Calm Calm - N/A   Overcast
4:53 AM 37.9 °F - 37.0 °F 97% 30.03 in 7.0 mi Calm Calm - N/A   Overcast
5:09 AM 39.2 °F 35.0 °F 35.6 °F 87% 30.02 in 10.0 mi North 5.8 mph - N/A   Overcast
5:53 AM 39.0 °F 36.8 °F 37.0 °F 93% 30.05 in 10.0 mi NE 3.5 mph - N/A   Overcast
6:53 AM 39.0 °F - 37.0 °F 93% 30.09 in 9.0 mi Calm Calm - N/A   Overcast
7:53 AM 39.0 °F - 37.9 °F 96% 30.12 in 8.0 mi Calm Calm - N/A   Overcast
8:53 AM 39.9 °F 37.8 °F 37.0 °F 89% 30.12 in 10.0 mi ENE 3.5 mph - N/A   Overcast
9:53 AM 39.9 °F 35.1 °F 36.0 °F 86% 30.13 in 10.0 mi East 6.9 mph - N/A   Overcast
10:53 AM 42.1 °F 39.2 °F 36.0 °F 79% 30.15 in 10.0 mi NNE 4.6 mph - N/A   Overcast
11:53 AM 41.0 °F 38.0 °F 35.1 °F 79% 30.14 in 10.0 mi ENE 4.6 mph - N/A   Overcast
12:53 PM 42.1 °F - 34.0 °F 73% 30.14 in 10.0 mi Calm Calm - N/A   Overcast
1:17 PM 42.8 °F 41.1 °F 35.6 °F 76% 30.11 in 10.0 mi East 3.5 mph - N/A   Overcast
1:53 PM 43.0 °F 41.3 °F 35.1 °F 74% 30.12 in 10.0 mi East 3.5 mph - N/A   Mostly Cloudy
2:20 PM 44.6 °F - 35.6 °F 71% 30.10 in 10.0 mi Calm Calm - N/A   Scattered Clouds
2:50 PM 44.6 °F 43.1 °F 35.6 °F 71% 30.10 in 10.0 mi NE 3.5 mph - N/A   Mostly Cloudy
2:53 PM 44.1 °F - 35.1 °F 71% 30.12 in 10.0 mi Calm Calm - N/A   Mostly Cloudy
3:27 PM 42.8 °F - 35.6 °F 76% 30.11 in 10.0 mi Calm Calm - N/A   Mostly Cloudy
3:53 PM 43.0 °F - 35.1 °F 74% 30.14 in 10.0 mi Calm Calm - N/A   Overcast
5:53 PM 41.0 °F - 35.1 °F 79% 30.15 in 10.0 mi Calm Calm - N/A   Overcast
6:53 PM 41.0 °F - 35.1 °F 79% 30.16 in 10.0 mi Calm Calm - N/A   Overcast
7:53 PM 41.0 °F - 35.1 °F 79% 30.16 in 9.0 mi Calm Calm - N/A   Overcast
8:53 PM 41.0 °F - 34.0 °F 76% 30.17 in 10.0 mi Calm Calm - N/A   Overcast
9:53 PM 39.9 °F - 34.0 °F 79% 30.17 in 10.0 mi Calm Calm - N/A   Overcast
10:53 PM 39.9 °F - 34.0 °F 79% 30.17 in 10.0 mi Calm Calm - N/A   Overcast
11:53 PM 39.9 °F - 35.1 °F 83% 30.17 in 10.0 mi Calm Calm - N/A   Overcast